KF5JED-13 Weather Reports


time (UTC)temp
C
wind
direction
speed
KPH
gust
KPH
rain 1hr
cm
rain 24hr
cm
rain mn
cm
humidity
%
barometer
mb
20260508020532 17 156 3.2 6.4 0.00 0.00 0.00 31 1013.3
20260508020030 17 150 4.8 6.4 0.00 0.00 0.00 31 1013.6
20260508015527 17 156 4.8 6.4 0.00 0.00 0.00 31 1013.5
20260508015024 18 158 6.4 6.4 0.00 0.00 0.00 30 1013.5
20260508014521 19 148 6.4 9.7 0.00 0.00 0.00 28 1013.5
20260508014017 18 139 6.4 6.4 0.00 0.00 0.00 29 1013.2
20260508013513 20 178 4.8 6.4 0.00 0.00 0.00 29 1013.1
20260508013010 21 193 6.4 9.7 0.00 0.00 0.00 27 1013.2
20260508012507 21 200 6.4 14.5 0.00 0.00 0.00 27 1013.2
20260508012004 21 212 8.0 14.5 0.00 0.00 0.00 26 1013.1
20260508011503 22 209 11.3 14.5 0.00 0.00 0.00 26 1013.0
20260508010959 22 211 12.9 17.7 0.00 0.00 0.00 26 1013.3
20260508010451 22 211 16.1 27.4 0.00 0.00 0.00 25 1013.1
20260508005948 22 194 22.5 24.1 0.00 0.00 0.00 25 1013.2
20260508005445 23 206 19.3 25.7 0.00 0.00 0.00 25 1013.1
20260508004941 23 218 11.3 17.7 0.00 0.00 0.00 25 1013.1
20260508004437 23 229 11.3 17.7 0.00 0.00 0.00 25 1013.1
20260508003934 23 219 12.9 22.5 0.00 0.00 0.00 25 1013.1
20260508003431 23 199 22.5 29.0 0.00 0.00 0.00 24 1013.1
20260508002928 23 207 17.7 20.9 0.00 0.00 0.00 24 1013.1
20260508002425 23 223 9.7 24.1 0.00 0.00 0.00 25 1013.1
20260508001921 23 197 12.9 30.6 0.00 0.00 0.00 25 1013.1
20260508001417 23 213 14.5 24.1 0.00 0.00 0.00 25 1013.0
20260508000914 23 274 4.8 22.5 0.00 0.00 0.00 25 1013.0
20260508000412 24 212 9.7 14.5 0.00 0.00 0.00 24 1013.1
20260507235907 24 225 17.7 25.7 0.00 0.00 0.00 23 1013.1
20260507235404 23 199 9.7 27.4 0.00 0.00 0.00 24 1013.3
20260507234901 24 214 11.3 19.3 0.00 0.00 0.00 24 1013.0
20260507234359 24 235 6.4 17.7 0.00 0.00 0.00 24 1013.0
20260507233854 24 212 14.5 17.7 0.00 0.00 0.00 23 1012.9
20260507233351 24 218 20.9 32.2 0.00 0.00 0.00 23 1013.0
20260507232849 24 205 20.9 24.1 0.00 0.00 0.00 23 1012.9
20260507232345 24 213 24.1 27.4 0.00 0.00 0.00 23 1013.1
20260507231843 24 205 17.7 22.5 0.00 0.00 0.00 23 1013.2
20260507231340 25 287 3.2 9.7 0.00 0.00 0.00 24 1013.2
20260507230836 25 210 12.9 12.9 0.00 0.00 0.00 23 1013.2
20260507230333 24 235 17.7 22.5 0.00 0.00 0.00 23 1013.3
20260507225833 23 223 16.1 33.8 0.00 0.00 0.00 24 1013.3
20260507225329 24 223 14.5 14.5 0.00 0.00 0.00 24 1013.5
20260507224826 24 277 6.4 17.7 0.00 0.00 0.00 25 1013.5
20260507224323 24 275 6.4 14.5 0.00 0.00 0.00 23 1013.5
20260507223819 24 314 3.2 19.3 0.00 0.00 0.00 24 1013.5
20260507223315 24 255 11.3 17.7 0.00 0.00 0.00 24 1013.7
20260507222812 24 284 3.2 19.3 0.00 0.00 0.00 24 1013.6
20260507222308 24 241 4.8 14.5 0.00 0.00 0.00 24 1013.7
20260507221806 24 240 11.3 22.5 0.00 0.00 0.00 24 1013.7
20260507221302 23 315 4.8 11.3 0.00 0.00 0.00 24 1013.8
20260507220758 23 231 20.9 25.7 0.00 0.00 0.00 25 1013.8
20260507220257 23 212 17.7 24.1 0.00 0.00 0.00 25 1013.7
20260507215752 23 225 3.2 11.3 0.00 0.00 0.00 25 1013.8
20260507215250 23 221 14.5 22.5 0.00 0.00 0.00 25 1014.1
20260507214747 23 207 22.5 33.8 0.00 0.00 0.00 25 1014.2
20260507214244 23 253 6.4 12.9 0.00 0.00 0.00 26 1014.3
20260507213739 23 195 6.4 30.6 0.00 0.00 0.00 26 1014.5
20260507213237 22 223 19.3 30.6 0.00 0.00 0.00 26 1014.3
20260507212733 23 227 17.7 29.0 0.00 0.00 0.00 25 1014.7
20260507212230 22 221 22.5 30.6 0.00 0.00 0.00 24 1014.6
20260507211726 23 294 4.8 12.9 0.00 0.00 0.00 25 1014.7
20260507211222 22 232 8.0 19.3 0.00 0.00 0.00 26 1014.8
20260507210720 22 208 14.5 24.1 0.00 0.00 0.00 24 1015.0
20260507210216 22 286 9.7 27.4 0.00 0.00 0.00 26 1014.7
20260507205713 22 259 12.9 19.3 0.00 0.00 0.00 27 1015.0
20260507205209 22 216 9.7 24.1 0.00 0.00 0.00 27 1015.0
20260507204706 22 212 17.7 24.1 0.00 0.00 0.00 26 1015.1
20260507204204 22 231 8.0 11.3 0.00 0.00 0.00 28 1015.2
20260507203702 22 228 14.5 24.1 0.00 0.00 0.00 27 1015.7
20260507203159 22 190 16.1 19.3 0.00 0.00 0.00 29 1015.5
20260507202654 22 293 8.0 27.4 0.00 0.00 0.00 31 1015.7
20260507202150 21 321 6.4 24.1 0.00 0.00 0.00 29 1015.9
20260507201645 22 243 16.1 24.1 0.00 0.00 0.00 29 1015.8
20260507201143 21 175 9.7 20.9 0.00 0.00 0.00 32 1015.9
20260507200639 22 208 24.1 24.1 0.00 0.00 0.00 30 1016.0
20260507200135 21 170 9.7 24.1 0.00 0.00 0.00 31 1016.2
20260507195632 20 257 9.7 24.1 0.00 0.00 0.00 33 1016.3
20260507195129 21 217 8.0 9.7 0.00 0.00 0.00 32 1016.2
20260507194626 21 221 14.5 24.1 0.00 0.00 0.00 32 1016.7
20260507194121 20 192 6.4 22.5 0.00 0.00 0.00 33 1016.7
20260507193618 21 219 22.5 29.0 0.00 0.00 0.00 32 1016.9
20260507193115 20 232 3.2 14.5 0.00 0.00 0.00 35 1016.7
20260507192612 20 203 19.3 24.1 0.00 0.00 0.00 34 1017.0
20260507192109 20 233 16.1 19.3 0.00 0.00 0.00 35 1016.9
20260507191604 20 239 12.9 33.8 0.00 0.00 0.00 38 1017.0
20260507191101 20 297 8.0 12.9 0.00 0.00 0.00 37 1017.2
20260507190558 20 223 17.7 24.1 0.00 0.00 0.00 37 1017.2
20260507190057 20 215 8.0 22.5 0.00 0.00 0.00 39 1017.3
20260507185555 19 305 4.8 17.7 0.00 0.00 0.00 40 1017.2
20260507185051 18 287 11.3 17.7 0.00 0.00 0.00 42 1017.6
20260507184550 20 249 8.0 16.1 0.00 0.00 0.00 41 1017.6
20260507184047 19 298 8.0 30.6 0.00 0.00 0.00 40 1017.7
20260507183543 19 207 19.3 29.0 0.00 0.00 0.00 40 1017.8
20260507183040 18 241 6.4 17.7 0.00 0.00 0.00 42 1018.1
20260507182536 17 227 12.9 37.0 0.00 0.00 0.00 45 1018.1
20260507182032 18 237 8.0 22.5 0.00 0.00 0.00 44 1018.2
20260507181530 18 208 22.5 32.2 0.00 0.00 0.00 43 1018.4
20260507181026 17 228 6.4 27.4 0.00 0.00 0.00 45 1018.5
20260507180522 18 226 24.1 29.0 0.00 0.00 0.00 45 1018.6
20260507180019 17 319 6.4 16.1 0.00 0.00 0.00 46 1018.7
20260507175515 17 217 11.3 25.7 0.00 0.00 0.00 45 1018.7
20260507175013 17 227 19.3 24.1 0.00 0.00 0.00 46 1018.9
20260507174510 17 233 14.5 32.2 0.00 0.00 0.00 47 1018.8
20260507174008 16 233 20.9 27.4 0.00 0.00 0.00 48 1019.1
20260507173504 16 220 22.5 30.6 0.00 0.00 0.00 49 1019.1
20260507173002 16 300 9.7 20.9 0.00 0.00 0.00 50 1019.5
20260507172458 16 237 6.4 17.7 0.00 0.00 0.00 49 1019.2
20260507171954 16 250 9.7 24.1 0.00 0.00 0.00 51 1019.5
20260507171450 16 249 3.2 17.7 0.00 0.00 0.00 52 1019.5
20260507170948 15 228 19.3 22.5 0.00 0.00 0.00 52 1019.5
20260507170444 15 220 16.1 33.8 0.00 0.00 0.00 52 1019.6
20260507165940 15 203 12.9 24.1 0.00 0.00 0.00 52 1019.7
20260507165437 15 271 3.2 22.5 0.00 0.00 0.00 53 1019.8
20260507164932 15 231 9.7 24.1 0.00 0.00 0.00 54 1019.8
20260507164430 15 223 22.5 27.4 0.00 0.00 0.00 53 1019.8
20260507163926 13 206 8.0 33.8 0.00 0.00 0.00 56 1019.9
20260507163424 15 204 29.0 37.0 0.00 0.00 0.00 54 1019.9
20260507162921 14 226 24.1 24.1 0.00 0.00 0.00 54 1020.1
20260507162416 15 239 11.3 22.5 0.00 0.00 0.00 54 1020.1
20260507161914 13 202 14.5 24.1 0.00 0.00 0.00 57 1020.2
20260507161409 13 209 17.7 22.5 0.00 0.00 0.00 57 1020.0
20260507160906 13 209 16.1 30.6 0.00 0.00 0.00 55 1020.0
20260507160402 13 228 16.1 27.4 0.00 0.00 0.00 58 1020.2
20260507155858 13 227 17.7 20.9 0.00 0.00 0.00 59 1020.2
20260507155354 12 274 8.0 17.7 0.00 0.00 0.00 64 1020.2
20260507154851 12 238 17.7 24.1 0.00 0.00 0.00 64 1020.4
20260507154348 11 238 8.0 19.3 0.00 0.00 0.00 65 1020.4
20260507153932 11 199 20.9 30.6 0.00 0.00 0.00 64 1020.2
20260507153846 11 199 20.9 30.6 0.00 0.00 0.00 64 1020.2
20260507153342 11 208 12.9 24.1 0.00 0.00 0.00 66 1020.4
20260507153139 11 223 6.4 12.9 0.00 0.00 0.00 68 1020.5
20260507152838 11 223 6.4 12.9 0.00 0.00 0.00 68 1020.5
20260507152334 11 229 11.3 17.7 0.00 0.00 0.00 68 1020.5
20260507152240 11 210 6.4 11.3 0.00 0.00 0.00 69 1020.6
20260507151831 11 210 6.4 11.3 0.00 0.00 0.00 69 1020.6
20260507151327 10 189 3.2 11.3 0.00 0.00 0.00 72 1020.8
20260507150825 10 308 1.6 17.7 0.00 0.00 0.00 74 1020.5
20260507150321 10 239 4.8 11.3 0.00 0.00 0.00 75 1020.7
20260507145817 10 224 8.0 8.0 0.00 0.00 0.00 76 1020.7
20260507145313 8 204 4.8 17.7 0.00 0.00 0.00 78 1020.8
20260507144811 8 223 17.7 20.9 0.00 0.00 0.00 80 1020.8
20260507144308 8 229 6.4 11.3 0.00 0.00 0.00 81 1020.8
20260507143804 8 331 8.0 17.7 0.00 0.00 0.00 84 1020.8
20260507143302 8 314 6.4 12.9 0.00 0.00 0.00 85 1021.0
20260507142758 7 314 6.4 11.3 0.00 0.00 0.00 86 1021.0
20260507142254 7 216 14.5 16.1 0.00 0.00 0.00 88 1020.9
20260507141751 7 292 9.7 14.5 0.00 0.00 0.00 89 1021.2
20260507141248 6 224 6.4 19.3 0.00 0.00 0.00 91 1021.4
20260507140744 6 182 3.2 11.3 0.00 0.00 0.00 93 1021.1
20260507140242 6 217 6.4 17.7 0.00 0.00 0.00 94 1021.4
20260507135738 6 342 6.4 14.5 0.00 0.00 0.00 96 1021.4
20260507135236 6 306 4.8 12.9 0.00 0.00 0.00 96 1021.1
20260507134732 5 260 3.2 12.9 0.00 0.00 0.00 97 1021.4
20260507134228 5 302 3.2 8.0 0.00 0.00 0.00 97 1021.4
20260507133724 5 192 3.2 17.7 0.00 0.00 0.00 97 1021.6
20260507133221 5 303 1.6 17.7 0.00 0.00 0.00 97 1021.2
20260507132719 5 166 3.2 8.0 0.00 0.00 0.00 97 1021.5
20260507132215 5 299 11.3 12.9 0.00 0.00 0.00 97 1021.5
20260507131712 5 278 3.2 8.0 0.00 0.00 0.00 97 1021.4
20260507131210 5 202 6.4 11.3 0.00 0.00 0.00 97 1021.2
20260507130706 5 310 9.7 9.7 0.00 0.00 0.00 97 1021.6
20260507130204 4 293 4.8 9.7 0.00 0.00 0.00 97 1021.5
20260507125702 4 298 11.3 12.9 0.00 0.00 0.00 97 1021.4
20260507125200 4 354 3.2 8.0 0.00 0.00 0.00 97 1021.2
20260507124656 4 330 9.7 11.3 0.00 0.00 0.00 97 1021.2
20260507124153 4 286 3.2 9.7 0.00 0.00 0.00 97 1020.9
20260507123652 4 40 1.6 8.0 0.00 0.00 0.00 97 1021.1
20260507123148 3 309 6.4 9.7 0.00 0.00 0.00 97 1021.0
20260507122644 4 316 8.0 8.0 0.00 0.00 0.00 97 1021.0
20260507122139 4 311 8.0 11.3 0.00 0.00 0.00 97 1021.0
20260507121636 3 318 8.0 11.3 0.00 0.00 0.00 96 1020.9
20260507121132 4 298 9.7 9.7 0.00 0.00 0.00 96 1020.9
20260507120628 4 324 8.0 9.7 0.00 0.00 0.00 96 1021.0
20260507120125 4 330 6.4 8.0 0.00 0.00 0.00 96 1020.8
20260507115621 4 325 3.2 9.7 0.00 0.00 0.00 96 1021.0
20260507115117 4 327 6.4 6.4 0.00 0.00 0.00 96 1020.9
20260507114613 4 327 4.8 9.7 0.00 0.00 0.00 96 1020.8
20260507114110 4 338 4.8 8.0 0.00 0.00 0.00 96 1020.8
20260507113608 4 328 6.4 9.7 0.00 0.00 0.00 95 1020.8
20260507113105 4 317 4.8 6.4 0.00 0.00 0.00 95 1020.9
20260507112603 4 318 8.0 9.7 0.00 0.00 0.00 95 1020.8
20260507112059 4 339 6.4 8.0 0.00 0.00 0.00 95 1020.7
20260507111556 4 347 6.4 8.0 0.00 0.00 0.00 94 1020.7
20260507111053 4 322 6.4 11.3 0.00 0.00 0.00 94 1020.8
20260507110549 4 318 8.0 11.3 0.00 0.00 0.00 94 1020.7
20260507110046 4 320 6.4 11.3 0.00 0.00 0.00 94 1021.0
20260507105542 4 305 9.7 12.9 0.00 0.00 0.00 93 1020.9
20260507105038 4 337 6.4 8.0 0.00 0.00 0.00 93 1020.8
20260507104536 5 311 4.8 11.3 0.00 0.00 0.00 93 1020.8
20260507104032 5 346 3.2 8.0 0.00 0.00 0.00 93 1020.8
20260507103528 4 348 3.2 6.4 0.00 0.00 0.00 92 1020.8
20260507103025 4 29 3.2 6.4 0.00 0.00 0.00 92 1020.9
20260507102522 4 19 3.2 8.0 0.00 0.00 0.00 92 1020.9
20260507102018 4 60 0.0 3.2 0.00 0.00 0.00 91 1020.9
20260507101514 4 346 1.6 3.2 0.00 0.00 0.00 91 1020.9
20260507101010 4 18 6.4 6.4 0.00 0.00 0.00 91 1021.0
20260507100508 4 9 4.8 6.4 0.00 0.00 0.00 91 1021.0
20260507100005 3 347 1.6 3.2 0.00 0.00 0.00 90 1020.9
20260507095503 4 19 6.4 6.4 0.00 0.00 0.00 90 1020.9
20260507094954 4 29 0.0 6.4 0.00 0.00 0.00 90 1021.0
20260507094450 4 16 1.6 11.3 0.00 0.00 0.00 89 1020.9
20260507093947 3 20 4.8 4.8 0.00 0.00 0.00 89 1020.8
20260507093445 4 112 1.6 3.2 0.00 0.00 0.00 88 1020.7
20260507092943 4 111 1.6 3.2 0.00 0.00 0.00 88 1020.6
20260507092439 4 44 0.0 0.0 0.00 0.00 0.00 88 1020.9
20260507091936 4 55 3.2 3.2 0.00 0.00 0.00 87 1020.8
20260507091432 4 103 0.0 1.6 0.00 0.00 0.00 86 1020.7
20260507090928 5 89 0.0 1.6 0.00 0.00 0.00 86 1020.7
20260507090425 5 38 0.0 3.2 0.00 0.00 0.00 86 1020.8
20260507085921 5 66 0.0 1.6 0.00 0.00 0.00 85 1020.5
20260507085418 5 49 3.2 3.2 0.00 0.00 0.00 84 1020.7
20260507084916 5 74 3.2 3.2 0.00 0.00 0.00 84 1020.6
20260507084412 5 93 3.2 3.2 0.00 0.00 0.00 83 1020.5
20260507083910 6 67 3.2 3.2 0.00 0.00 0.00 83 1020.5
20260507083406 6 39 4.8 6.4 0.00 0.00 0.00 83 1020.7
20260507082902 6 28 4.8 6.4 0.00 0.00 0.00 82 1020.7
20260507082358 6 39 4.8 6.4 0.00 0.00 0.00 81 1020.7
20260507081855 6 40 4.8 6.4 0.00 0.00 0.00 81 1020.8
20260507081351 6 65 4.8 6.4 0.00 0.00 0.00 80 1020.7
20260507080848 6 57 6.4 8.0 0.00 0.00 0.00 80 1020.6
20260507080344 6 70 8.0 9.7 0.00 0.00 0.00 80 1020.5
20260507075839 6 81 6.4 9.7 0.00 0.00 0.00 79 1020.5
20260507075336 7 80 0.0 6.4 0.00 0.00 0.00 79 1020.8
20260507074832 7 87 6.4 16.1 0.00 0.00 0.00 78 1020.4
20260507074330 7 136 9.7 11.3 0.00 0.00 0.00 76 1020.8
20260507073827 7 52 6.4 9.7 0.00 0.00 0.00 75 1021.1
20260507073324 7 16 9.7 14.5 0.00 0.00 0.00 74 1021.5
20260507072821 7 31 12.9 16.1 0.00 0.00 0.00 73 1021.8
20260507072318 7 8 9.7 11.3 0.00 0.00 0.00 72 1021.9
20260507071815 7 24 12.9 14.5 0.00 0.00 0.00 72 1021.5
20260507071312 7 16 12.9 17.7 0.00 0.00 0.00 71 1021.2
20260507070809 7 11 12.9 14.5 0.00 0.00 0.00 70 1021.7
20260507070306 7 17 8.0 17.7 0.00 0.00 0.00 70 1021.7
20260507065803 7 1 16.1 19.3 0.00 0.00 0.00 69 1021.9
20260507065259 7 13 12.9 16.1 0.00 0.00 0.00 68 1022.2
20260507064756 7 9 9.7 11.3 0.00 0.00 0.00 68 1022.1
20260507064255 7 30 8.0 12.9 0.00 0.00 0.00 67 1021.9
20260507063753 8 46 11.3 14.5 0.00 0.00 0.00 67 1022.0
20260507063249 8 8 11.3 16.1 0.00 0.00 0.00 67 1022.0
20260507062746 8 352 9.7 14.5 0.00 0.00 0.00 67 1021.8
20260507062243 8 48 12.9 17.7 0.00 0.00 0.00 66 1021.6
20260507061741 8 27 9.7 14.5 0.00 0.00 0.00 66 1021.7
20260507061239 8 28 9.7 12.9 0.00 0.00 0.00 66 1021.9
20260507060737 8 44 11.3 20.9 0.00 0.00 0.00 66 1021.6
20260507060233 8 50 14.5 19.3 0.00 0.00 0.00 66 1021.5
20260507055730 8 31 17.7 20.9 0.00 0.00 0.00 65 1021.1
20260507055225 8 39 14.5 22.5 0.00 0.00 0.00 65 1020.9
20260507054721 8 16 16.1 20.9 0.00 0.00 0.00 65 1020.8
20260507054218 8 40 14.5 20.9 0.00 0.00 0.00 65 1020.9
20260507053716 8 36 9.7 20.9 0.00 0.00 0.00 65 1021.1
20260507053214 8 60 11.3 22.5 0.00 0.00 0.00 65 1021.1
20260507052713 8 37 14.5 24.1 0.00 0.00 0.00 65 1020.8
20260507052208 8 38 11.3 22.5 0.00 0.00 0.00 65 1020.7
20260507051706 8 47 14.5 24.1 0.00 0.00 0.00 65 1021.0
20260507051203 8 37 9.7 25.7 0.00 0.00 0.00 66 1020.8
20260507050659 8 6 20.9 24.1 0.00 0.00 0.00 66 1020.9
20260507050156 8 22 17.7 29.0 0.00 0.00 0.00 65 1020.9
20260507045653 8 20 19.3 30.6 0.00 0.00 0.00 64 1020.9
20260507045149 8 35 24.1 29.0 0.00 0.00 0.00 63 1021.1
20260507044646 8 10 16.1 30.6 0.00 0.00 0.00 63 1021.0
20260507044143 8 24 12.9 20.9 0.00 0.00 0.00 63 1021.0
20260507043639 8 15 17.7 22.5 0.00 0.00 0.00 63 1020.9
20260507043136 8 40 20.9 24.1 0.00 0.00 0.00 62 1020.8
20260507042632 8 22 16.1 24.1 0.00 0.00 0.00 62 1020.7
20260507042121 8 19 17.7 25.7 0.00 0.00 0.00 62 1020.6
20260507041619 8 7 17.7 29.0 0.00 0.00 0.00 62 1020.7
20260507041116 8 9 17.7 24.1 0.00 0.00 0.00 61 1020.2
20260507040612 9 41 17.7 33.8 0.00 0.00 0.00 61 1020.2
20260507040103 9 20 24.1 29.0 0.00 0.00 0.00 60 1020.2
20260507035559 9 23 19.3 29.0 0.00 0.00 0.00 60 1020.2
20260507035055 9 15 27.4 38.6 0.00 0.00 0.00 60 1020.5
20260507034552 9 26 22.5 27.4 0.00 0.00 0.00 60 1020.1
20260507034050 10 7 27.4 35.4 0.00 0.00 0.00 60 1020.5
20260507033548 10 23 20.9 27.4 0.00 0.00 0.00 60 1020.1
20260507033045 10 12 24.1 27.4 0.00 0.00 0.00 61 1020.1
20260507032542 10 31 25.7 37.0 0.00 0.00 0.00 61 1019.9
20260507032038 10 25 27.4 43.5 0.00 0.00 0.00 62 1020.1
20260507031535 10 35 20.9 37.0 0.00 0.00 0.00 62 1020.1
20260507031032 10 41 22.5 33.8 0.00 0.00 0.00 61 1020.0
20260507030529 11 23 24.1 40.2 0.00 0.00 0.00 57 1019.4
20260507030027 11 5 19.3 32.2 0.00 0.00 0.00 56 1019.6
20260507025523 11 37 25.7 40.2 0.00 0.00 0.00 55 1019.4
20260507025021 11 30 20.9 35.4 0.00 0.00 0.00 54 1019.1
20260507024518 11 25 19.3 33.8 0.00 0.00 0.00 54 1019.4
20260507024015 11 16 20.9 37.0 0.00 0.00 0.00 53 1019.0
20260507023511 12 16 16.1 32.2 0.00 0.00 0.00 53 1019.0
20260507023009 12 4 20.9 22.5 0.00 0.00 0.00 53 1018.8
20260507022505 12 12 17.7 25.7 0.00 0.00 0.00 53 1018.7
20260507022000 12 35 14.5 33.8 0.00 0.00 0.00 54 1018.6
20260507021456 12 30 20.9 25.7 0.00 0.00 0.00 53 1018.2
20260507020953 12 21 16.1 27.4 0.00 0.00 0.00 53 1017.9